Location: Peach Mountain Observatory
(42.3967°N, 83.9367°W)
Time: 10:23:00
(UTC-04:00)

deb Explorer IX - Pass Details

Date: 27 January 2020
Orbit: 548 x 1100 km, 38.8° (Epoch: 08 April)

Event Time Altitude Azimuth Distance (km) Brightness Sun altitude
Rises 22:10:45 0° 248° (WSW) 3,668 ? -48.9°
Enters shadow 22:12:20 - 246° (WSW) 3,124 ? -49.2°
Reaches altitude 10° 22:13:20 10° 244° (WSW) 2,786 - -49.3°
Maximum altitude 22:20:05 59° 167° (SSE) 1,229 - -50.5°
Drops below altitude 10° 22:27:15 10° 91° (E) 2,953 - -51.6°
Sets 22:30:03 0° 87° (E) 3,902 - -52.1°
